Location: *
(55.5817°S, 142.4781°W)
Time: 07:58:09
(UTC+00:00)

Intercosmos 24 - Pass Details

Date: 29 April 2025
Orbit: 499 x 2355 km, 82.6° (Epoch: 18 May)

Event Time Altitude Azimuth Distance (km) Brightness Sun altitude
Rises 15:15:29 0° 196° (SSW) 2,759 7.2 -13.7°
Reaches altitude 10° 15:17:45 10° 202° (SSW) 1,784 6.1 -13.4°
Maximum altitude 15:21:17 43° 275° (W) 731 4.0 -12.9°
Drops below altitude 10° 15:24:51 10° 347° (NNW) 1,811 6.4 -12.4°
Sets 15:27:10 0° 353° (N) 2,806 7.5 -12.1°
